When you browse on this site, cookies collect data to enhance your experience and personalize the content and advertising you see.
Visit our Privacy Policy to learn more. By continuing to use the site, you agree to this use of cookies and data.
  • In Lithuania
  • List of Countries
  • For 7 days
  • Water Temperature
  • Weather Map
  • Weather Widgets
  • user-avatar
    Login

    Hourly Weather Vystavka

    Today, 19 August, Monday

    Time Temperature Precipitation Wind Pressure Humidity
    00:00 +15°C° 0 mm 2 mps 736 mmHg 99%
    01:00 +14°C° 0 mm 2 mps 736 mmHg 99%
    02:00 +14°C° 0 mm 2 mps 736 mmHg 98%
    03:00 +14°C° 0 mm 2 mps 737 mmHg 98%
    04:00 +14°C° 0 mm 2 mps 737 mmHg 98%
    05:00 +14°C° 0 mm 2 mps 737 mmHg 98%
    06:00 +15°C° 0 mm 2 mps 737 mmHg 97%
    07:00 +15°C° 0 mm 2 mps 738 mmHg 95%
    08:00 +16°C° 0 mm 2 mps 738 mmHg 94%
    09:00 +17°C° 0 mm 2 mps 738 mmHg 86%
    10:00 +19°C° 0 mm 2 mps 738 mmHg 78%
    11:00 +20°C° 0 mm 2 mps 739 mmHg 70%
    12:00 +21°C° 0 mm 2 mps 739 mmHg 66%
    13:00 +24°C° 0 mm 2 mps 739 mmHg 62%
    14:00 +25°C° 0 mm 3 mps 739 mmHg 57%
    15:00 +25°C° 0 mm 2 mps 739 mmHg 62%
    16:00 +24°C° 0 mm 2 mps 739 mmHg 66%
    17:00 +24°C° 0 mm 2 mps 739 mmHg 70%
    18:00 +23°C° 0 mm 2 mps 739 mmHg 77%
    19:00 +20°C° 0 mm 2 mps 739 mmHg 84%
    20:00 +18°C° 0 mm 2 mps 739 mmHg 90%
    21:00 +18°C° 0.1 mm 2 mps 739 mmHg 92%
    22:00 +18°C° 0.1 mm 2 mps 739 mmHg 94%
    23:00 +18°C° 0.1 mm 2 mps 739 mmHg 97%

    Tomorrow, 20 August, Tuesday

    Time Temperature Precipitation Wind Pressure Humidity
    00:00 +17°C° 0.1 mm 2 mps 740 mmHg 97%
    01:00 +17°C° 0.1 mm 2 mps 740 mmHg 98%
    02:00 +17°C° 0.1 mm 2 mps 740 mmHg 98%
    03:00 +17°C° 0 mm 2 mps 740 mmHg 98%
    04:00 +17°C° 0 mm 2 mps 740 mmHg 99%
    05:00 +17°C° 0 mm 2 mps 740 mmHg 99%
    06:00 +18°C° 0 mm 2 mps 741 mmHg 97%
    07:00 +19°C° 0 mm 2 mps 741 mmHg 94%
    08:00 +20°C° 0 mm 2 mps 742 mmHg 92%
    09:00 +21°C° 0 mm 2 mps 742 mmHg 87%
    10:00 +23°C° 0 mm 2 mps 742 mmHg 82%
    11:00 +24°C° 0 mm 1 mps 742 mmHg 77%
    12:00 +24°C° 0.6 mm 2 mps 742 mmHg 80%
    13:00 +24°C° 0.6 mm 2 mps 743 mmHg 83%
    14:00 +24°C° 0.6 mm 2 mps 743 mmHg 86%
    15:00 +23°C° 1 mm 2 mps 743 mmHg 89%
    16:00 +23°C° 1 mm 2 mps 743 mmHg 91%
    17:00 +22°C° 1 mm 1 mps 743 mmHg 93%
    18:00 +21°C° 0.3 mm 1 mps 743 mmHg 94%
    19:00 +20°C° 0.3 mm 1 mps 743 mmHg 95%
    20:00 +17°C° 0.3 mm 0 mps 743 mmHg 96%
    21:00 +16°C° 0 mm 0 mps 743 mmHg 96%
    22:00 +16°C° 0 mm 0 mps 743 mmHg 96%
    23:00 +16°C° 0 mm 0 mps 744 mmHg 96%

    Day after tomorrow, 21 August, Wednesday

    Time Temperature Precipitation Wind Pressure Humidity
    00:00 +18°C° 0 mm 1 mps 744 mmHg 97%
    01:00 +16°C° 0 mm 1 mps 744 mmHg 97%
    02:00 +16°C° 0 mm 1 mps 744 mmHg 97%
    03:00 +16°C° 0 mm 1 mps 744 mmHg 97%
    04:00 +16°C° 0 mm 1 mps 744 mmHg 96%
    05:00 +16°C° 0 mm 1 mps 744 mmHg 96%
    06:00 +18°C° 0 mm 1 mps 744 mmHg 95%
    07:00 +18°C° 0 mm 1 mps 744 mmHg 93%
    08:00 +19°C° 0 mm 1 mps 745 mmHg 92%
    09:00 +20°C° 0 mm 1 mps 745 mmHg 89%
    10:00 +21°C° 0 mm 1 mps 745 mmHg 86%
    11:00 +22°C° 0 mm 1 mps 745 mmHg 84%
    12:00 +22°C° 0 mm 1 mps 744 mmHg 84%
    13:00 +23°C° 0 mm 1 mps 744 mmHg 84%
    14:00 +21°C° 0 mm 0 mps 744 mmHg 85%
    15:00 +21°C° 0.2 mm 0 mps 744 mmHg 86%
    16:00 +21°C° 0.2 mm 0 mps 743 mmHg 87%
    17:00 +21°C° 0.2 mm 0 mps 743 mmHg 89%
    18:00 +22°C° 0.6 mm 1 mps 743 mmHg 91%
    19:00 +21°C° 0.6 mm 1 mps 743 mmHg 94%
    20:00 +20°C° 0.6 mm 1 mps 743 mmHg 96%
    21:00 +20°C° 0.5 mm 1 mps 743 mmHg 97%
    22:00 +19°C° 0.5 mm 1 mps 743 mmHg 97%
    23:00 +19°C° 0.5 mm 1 mps 743 mmHg 98%

    22 August, Thursday

    Time Temperature Precipitation Wind Pressure Humidity
    00:00 +19°C° 1.5 mm 1 mps 743 mmHg 98%
    01:00 +17°C° 1.5 mm 2 mps 743 mmHg 98%
    02:00 +17°C° 1.5 mm 2 mps 743 mmHg 98%
    03:00 +17°C° 1.2 mm 2 mps 743 mmHg 98%
    04:00 +16°C° 1.2 mm 3 mps 743 mmHg 97%
    05:00 +16°C° 1.2 mm 3 mps 743 mmHg 97%
    06:00 +16°C° 0.4 mm 3 mps 743 mmHg 96%
    07:00 +14°C° 0.4 mm 3 mps 743 mmHg 96%
    08:00 +14°C° 0.4 mm 3 mps 743 mmHg 95%
    09:00 +15°C° 0.4 mm 2 mps 744 mmHg 95%
    10:00 +15°C° 0.4 mm 2 mps 744 mmHg 95%
    11:00 +15°C° 0.4 mm 2 mps 744 mmHg 95%
    12:00 +15°C° 0.1 mm 2 mps 744 mmHg 94%
    13:00 +16°C° 0.1 mm 2 mps 744 mmHg 93%
    14:00 +16°C° 0.1 mm 2 mps 744 mmHg 92%
    15:00 +16°C° 0.1 mm 1 mps 744 mmHg 92%
    16:00 +16°C° 0.1 mm 1 mps 744 mmHg 93%
    17:00 +16°C° 0.1 mm 1 mps 743 mmHg 94%
    18:00 +16°C° 0.1 mm 1 mps 744 mmHg 94%
    19:00 +15°C° 0.1 mm 1 mps 744 mmHg 95%
    20:00 +15°C° 0.1 mm 1 mps 744 mmHg 96%
    21:00 +15°C° 0 mm 1 mps 744 mmHg 96%
    22:00 +15°C° 0 mm 1 mps 744 mmHg 96%
    23:00 +14°C° 0 mm 1 mps 744 mmHg 95%

    23 August, Friday

    Time Temperature Precipitation Wind Pressure Humidity
    00:00 +14°C° 0 mm 1 mps 744 mmHg 96%
    01:00 +14°C° 0 mm 1 mps 744 mmHg 96%
    02:00 +14°C° 0 mm 1 mps 744 mmHg 96%
    03:00 +14°C° 0 mm 1 mps 744 mmHg 96%
    04:00 +14°C° 0 mm 1 mps 744 mmHg 96%
    05:00 +14°C° 0 mm 1 mps 744 mmHg 96%
    06:00 +15°C° 0 mm 1 mps 744 mmHg 94%
    07:00 +16°C° 0 mm 1 mps 744 mmHg 91%
    08:00 +18°C° 0 mm 1 mps 745 mmHg 89%
    09:00 +19°C° 0.6 mm 1 mps 745 mmHg 85%
    10:00 +20°C° 0.6 mm 1 mps 744 mmHg 81%
    11:00 +21°C° 0.6 mm 1 mps 744 mmHg 77%
    12:00 +20°C° 0.6 mm 1 mps 744 mmHg 79%
    13:00 +20°C° 0.6 mm 1 mps 744 mmHg 81%
    14:00 +19°C° 0.6 mm 1 mps 744 mmHg 83%
    15:00 +19°C° 0.3 mm 1 mps 744 mmHg 84%
    16:00 +19°C° 0.3 mm 1 mps 744 mmHg 85%
    17:00 +19°C° 0.3 mm 1 mps 744 mmHg 86%
    18:00 +16°C° 0.1 mm 1 mps 744 mmHg 88%
    19:00 +14°C° 0.1 mm 1 mps 745 mmHg 89%
    20:00 +13°C° 0.1 mm 2 mps 745 mmHg 91%
    21:00 +12°C° 0 mm 2 mps 745 mmHg 92%
    22:00 +12°C° 0 mm 2 mps 745 mmHg 94%
    23:00 +10°C° 0 mm 2 mps 745 mmHg 95%

    24 August, Saturday

    Time Temperature Precipitation Wind Pressure Humidity
    00:00 +10°C° 0 mm 2 mps 746 mmHg 96%
    01:00 +10°C° 0 mm 2 mps 746 mmHg 96%
    02:00 +9°C° 0 mm 2 mps 746 mmHg 97%
    03:00 +9°C° 0 mm 2 mps 746 mmHg 97%
    04:00 +9°C° 0 mm 2 mps 746 mmHg 97%
    05:00 +9°C° 0 mm 2 mps 746 mmHg 97%
    06:00 +10°C° 0 mm 2 mps 747 mmHg 93%
    07:00 +13°C° 0 mm 2 mps 747 mmHg 88%
    08:00 +14°C° 0 mm 2 mps 747 mmHg 84%
    09:00 +16°C° 0 mm 2 mps 748 mmHg 75%
    10:00 +18°C° 0 mm 3 mps 748 mmHg 65%
    11:00 +19°C° 0 mm 3 mps 748 mmHg 56%
    12:00 +20°C° 0 mm 3 mps 748 mmHg 54%
    13:00 +20°C° 0 mm 2 mps 748 mmHg 53%
    14:00 +21°C° 0 mm 2 mps 748 mmHg 52%
    15:00 +20°C° 0 mm 2 mps 748 mmHg 57%
    16:00 +20°C° 0 mm 2 mps 748 mmHg 62%
    17:00 +21°C° 0 mm 1 mps 748 mmHg 68%
    18:00 +19°C° 0 mm 1 mps 748 mmHg 74%
    19:00 +15°C° 0 mm 1 mps 748 mmHg 80%
    20:00 +13°C° 0 mm 1 mps 748 mmHg 85%
    21:00 +13°C° 0 mm 1 mps 748 mmHg 87%
    22:00 +12°C° 0 mm 1 mps 748 mmHg 89%
    23:00 +10°C° 0 mm 0 mps 748 mmHg 91%
    Show more